[[{"header":{"parameterUnit":"m.s-1","parameterCategory":1,"la1":30.2991,"la2":30.254,"lo1":-89.0895,"lo2":-89.0444,"dy":0.0017,"dx":0.0017,"nx":28,"ny":28,"refTime":"2024-12-11T03:00:00:Z","depth":0,"parameterNumber":2,"parameterNumberName":"U-component_of_WINDS"},"data":[0,0,0,0,0,0,0,0,0,0,0,0,0,0,0,0,0,0,0,0,0,0,0,0,0,0,0,0,0,0,0,0,0,0,0,0,0,0,0,0,0,0,0,0,0,0,0,0,0,0,0,0,0,0,0,0,0,0,-3.6106,-3.6107,0,-3.6156,-3.6157,-3.6157,-3.6075,-3.6073,-3.607,-3.6067,-3.6117,-3.612,-3.6124,0,0,0,0,0,0,0,0,0,0,0,0,0,-3.5939,-3.5942,-3.6106,-3.6107,-3.6108,-3.6156,-3.6157,-3.6157,-3.6076,-3.6073,-3.6069,-3.6066,-3.6115,-3.612,-3.6125,0,0,0,0,0,0,0,0,0,0,0,0,0,-3.6002,-3.5943,-3.6106,-3.6073,-3.607,-3.6156,-3.6157,-3.6157,-3.6077,-3.6072,-3.6068,-3.6064,-3.6114,-3.6119,-3.6125,-3.6245,0,0,-3.6143,-3.6146,0,0,0,0,0,0,0,0,-3.5999,-3.6008,-3.6077,-3.6075,-3.6073,-3.6105,-3.6115,-3.6187,-3.6078,-3.6074,-3.6067,-3.6062,-3.6116,-3.6121,-3.614,-3.6247,-3.6249,-3.6144,-3.6147,-3.615,-3.6151,0,0,0,0,0,0,0,-3.5994,-3.6006,-3.6126,-3.6078,-3.6075,-3.6055,-3.6059,-3.6129,-3.6118,-3.6074,-3.6068,-3.6075,-3.6114,-3.6134,-3.614,-3.625,-3.6143,-3.6149,-3.6152,-3.6155,-3.6457,-3.6461,0,0,0,0,0,0,-3.5994,-3.6003,-3.6124,-3.6127,-3.6025,-3.6061,-3.6066,-3.6099,-3.6117,-3.6116,-3.6079,-3.6071,-3.6126,-3.6134,-3.6142,-3.6282,-3.615,-3.6155,-3.6159,-3.6452,-3.6458,-3.6463,0,0,0,0,0,0,-3.5991,-3.6006,-3.6122,-3.6064,-3.6077,-3.6068,-3.6106,-3.6102,-3.6122,-3.6121,-3.6118,-3.6102,-3.6123,-3.6134,-3.622,-3.6283,-3.6158,-3.6163,-3.6447,-3.6454,-3.646,-3.6564,0,0,0,0,0,0,-3.5987,-3.6005,-3.6051,-3.6065,-3.608,-3.62,-3.611,-3.6106,-3.6133,-3.6124,-3.6141,-3.614,-3.6121,-3.6211,-3.6226,-3.6288,-3.6168,-3.6441,-3.645,-3.6458,-3.6555,-3.6574,-3.659,0,0,0,0,0,-3.5981,-3.6079,-3.6054,-3.6069,-3.6138,-3.6204,-3.6213,-3.6189,-3.6139,-3.6184,-3.6183,-3.614,-3.6274,-3.6221,-3.6236,-3.6302,-3.6437,-3.6448,-3.6457,-3.6548,-3.657,-3.6589,0,0,0,0,0,0,-3.6072,-3.608,-3.6053,-3.6158,-3.6181,-3.619,-3.6247,-3.6214,-3.6251,-3.6241,-3.6209,-3.6214,-3.6306,-3.6313,-3.6254,-3.6418,-3.6347,-3.6361,-3.641,-3.6432,-3.6449,-3.6445,-3.6173,0,0,0,0,0,-3.6105,-3.6159,-3.6162,-3.6255,-3.6268,-3.6256,-3.6284,-3.6263,-3.6286,-3.6295,-3.63,-3.6323,-3.6369,-3.6401,-3.6444,-3.6556,-3.6558,-3.6609,-3.6626,-3.664,-3.6652,-3.671,-3.6732,-3.6496,-3.6496,-3.6496,0,0,-3.6172,-3.6183,-3.6219,-3.6273,-3.6289,-3.6344,-3.6264,-3.6327,-3.6368,-3.6304,-3.6385,-3.639,-3.6413,-3.6513,-3.6556,-3.6521,-3.6718,-3.6653,-3.6665,-3.6669,-3.6723,-3.6745,-3.6765,-3.6503,-3.6502,-3.6501,0,0,-3.6323,-3.6337,-3.6415,-3.6432,-3.6457,-3.6448,-3.6467,-3.6481,-3.6482,-3.6563,-3.6516,-3.6564,-3.6646,-3.6664,-3.6684,-3.6842,-3.6803,-3.6857,-3.6947,-3.7004,-3.7022,-3.7038,-3.7093,-3.7113,-3.6869,-3.6869,-3.6869,0,-3.6403,-3.6486,-3.6459,-3.6525,-3.655,-3.6495,-3.6573,-3.6591,-3.6629,-3.6647,-3.6606,-3.6708,-3.6719,-3.6821,-3.686,-3.6878,-3.6898,-3.6854,-3.7022,-3.7038,-3.7053,-3.7105,-3.7125,-3.6875,-3.6875,-3.6874,-3.6873,0,-3.6583,-3.6641,-3.6701,-3.6738,-3.677,-3.6841,-3.6825,-3.686,-3.6837,-3.6832,-3.6915,-3.6928,-3.6972,-3.6995,-3.6973,-3.7094,-3.7071,-3.7027,-3.6955,-3.7082,-3.713,-3.715,-3.6884,-3.6882,-3.688,-3.6879,0,0,-3.6792,-3.6814,-3.6836,-3.6852,-3.6875,-3.6919,-3.6987,-3.7031,-3.7061,-3.7089,-3.7145,-3.7215,-3.7175,-3.7198,-3.7177,-3.7228,-3.735,-3.7177,-3.7177,-3.7208,-3.7482,-3.7514,-3.7537,-3.7325,-3.7329,-3.7332,-3.7479,0,-3.6941,-3.706,-3.7038,-3.7153,-3.7205,-3.7155,-3.7214,-3.7234,-3.7232,-3.7275,-3.7272,-3.7322,-3.7266,-3.7279,-3.7327,-3.7325,-3.7404,-3.7314,-3.7375,-3.7378,-3.737,-3.7562,-3.7597,-3.7735,-3.7498,-3.7501,-3.7504,0,-3.713,-3.7165,-3.7286,-3.7299,-3.7321,-3.7375,-3.7412,-3.7455,-3.7476,-3.7471,-3.7497,-3.7467,-3.7534,-3.7462,-3.7554,-3.7493,-3.7517,-3.752,-3.7524,-3.7528,-3.7447,-3.757,-3.7779,-3.78,-3.7533,-3.7531,-3.7529,0,-3.7269,-3.7346,-3.7428,-3.7443,-3.7461,-3.75,-3.751,-3.7527,-3.7555,-3.7587,-3.7605,-3.7645,-3.7667,-3.7699,-3.768,-3.7629,-3.7774,-3.7701,-3.7771,-3.7771,-3.7802,-3.78,-3.8017,-3.7821,-3.782,-3.782,-3.7819,0,-3.7436,-3.7512,-3.749,-3.754,-3.7623,-3.7597,-3.7679,-3.7682,-3.7698,-3.7748,-3.7706,-3.7753,-3.7727,-3.7771,-3.7757,-3.7835,-3.7845,-3.7842,-3.7837,-3.7845,-3.7845,-3.7859,-3.7848,-3.7825,-3.7824,-3.7823,-3.7822,0,-3.7605,-3.7593,-3.7679,-3.7689,-3.7694,-3.7754,-3.7762,-3.7809,-3.7803,-3.7866,-3.7879,-3.7871,-3.7921,-3.7906,-3.7961,-3.7951,-3.8049,-3.8032,-3.8041,-3.8037,-3.8107,-3.81,-3.8339,-3.8368,-3.8154,-3.8156,-3.8158,0,-3.7712,-3.7769,-3.7785,-3.7815,-3.7828,-3.7877,-3.7905,-3.7881,-3.7912,-3.794,-3.7983,-3.803,-3.8066,-3.8149,-3.8147,-3.8188,-3.8171,-3.8252,-3.8177,-3.8183,-3.8171,-3.8167,-3.8172,-3.8267,-3.8269,-3.8271,-3.8273,0,-3.7903,-3.7894,-3.7936,-3.7976,-3.801,-3.804,-3.8066,-3.8093,-3.8071,-3.8107,-3.8159,-3.8187,-3.8242,-3.8289,-3.8326,-3.8335,-3.83,-3.8297,-3.8315,-3.8322,-3.8325,-3.8323,-3.8081,-3.8291,-3.8289,-3.8288,-3.8287,-3.8286,-3.8043,-3.809,-3.8109,-3.8157,-3.8174,-3.8199,-3.8243,-3.8243,-3.8286,-3.8329,-3.8313,-3.8371,-3.839,-3.8437,-3.8451,-3.8495,-3.8464,-3.8491,-3.8497,-3.8504,-3.8512,-3.8319,-3.8502,-3.8502,-3.8501,-3.8501,-3.85,0,-3.823,-3.8239,-3.8284,-3.8322,-3.8359,-3.8324,-3.8351,-3.8384,-3.8436,-3.8457,-3.8493,-3.8552,-3.8597,-3.8599,-3.864,-3.8676,-3.8661,-3.8687,-3.8684,-3.8686,-3.8538,-3.8518,-3.8699,-3.8699,-3.8699,-3.8699,-3.8699,-3.8699,-3.8332,-3.841,-3.8404,-3.849,-3.8499,-3.8556,-3.8574,-3.8597,-3.8613,-3.868,-3.8718,-3.8719,-3.8732,-3.8774,-3.8813,-3.8813,-3.8829,-3.8862,-3.8855,-3.8716,-3.8697,-3.8678,-3.8658,-3.8866,-3.8866,-3.8999,-3.9,-3.9001]},{"header":{"parameterUnit":"m.s-1","parameterCategory":1,"la1":30.2991,"la2":30.254,"lo1":-89.0895,"lo2":-89.0444,"dy":0.0017,"dx":0.0017,"nx":28,"ny":28,"refTime":"2024-12-11T03:00:00:Z","depth":0,"parameterNumber":3,"parameterNumberName":"V-component_of_WINDS"},"data":[0,0,0,0,0,0,0,0,0,0,0,0,0,0,0,0,0,0,0,0,0,0,0,0,0,0,0,0,0,0,0,0,0,0,0,0,0,0,0,0,0,0,0,0,0,0,0,0,0,0,0,0,0,0,0,0,0,0,-1.3257,-1.3258,0,-1.3347,-1.3348,-1.3349,-1.338,-1.338,-1.338,-1.3379,-1.3471,-1.3473,-1.3476,0,0,0,0,0,0,0,0,0,0,0,0,0,-1.3112,-1.3114,-1.3257,-1.3258,-1.326,-1.3347,-1.3348,-1.3349,-1.338,-1.338,-1.338,-1.3379,-1.347,-1.3473,-1.3476,0,0,0,0,0,0,0,0,0,0,0,0,0,-1.3185,-1.3115,-1.3257,-1.3286,-1.3289,-1.3347,-1.3348,-1.335,-1.3381,-1.338,-1.338,-1.3379,-1.3469,-1.3473,-1.3477,-1.3512,0,0,-1.3489,-1.3491,0,0,0,0,0,0,0,0,-1.3181,-1.3191,-1.328,-1.3284,-1.3288,-1.3352,-1.333,-1.3404,-1.3381,-1.3346,-1.3379,-1.3379,-1.3432,-1.3439,-1.3457,-1.3516,-1.352,-1.349,-1.3492,-1.3494,-1.3495,0,0,0,0,0,0,0,-1.3176,-1.3187,-1.3293,-1.3282,-1.3286,-1.3293,-1.3303,-1.3344,-1.339,-1.3349,-1.3351,-1.3361,-1.3433,-1.3452,-1.3459,-1.3522,-1.349,-1.3493,-1.3496,-1.3497,-1.3614,-1.3614,0,0,0,0,0,0,-1.3166,-1.3183,-1.329,-1.3295,-1.3232,-1.3296,-1.3308,-1.3332,-1.339,-1.3398,-1.3362,-1.3363,-1.3446,-1.3454,-1.3462,-1.3507,-1.3494,-1.3498,-1.35,-1.3613,-1.3614,-1.3614,0,0,0,0,0,0,-1.3163,-1.3176,-1.3286,-1.324,-1.3254,-1.3299,-1.3327,-1.3334,-1.3353,-1.34,-1.3408,-1.3373,-1.3446,-1.3456,-1.3499,-1.351,-1.35,-1.3503,-1.3612,-1.3613,-1.3614,-1.3596,0,0,0,0,0,0,-1.3159,-1.3174,-1.3189,-1.324,-1.3257,-1.3322,-1.3327,-1.3336,-1.336,-1.3362,-1.3412,-1.342,-1.3446,-1.3493,-1.3503,-1.3516,-1.3507,-1.3611,-1.3613,-1.3614,-1.3596,-1.3596,-1.3597,0,0,0,0,0,-1.3153,-1.318,-1.3189,-1.3202,-1.3276,-1.3323,-1.3332,-1.3362,-1.3361,-1.3375,-1.3405,-1.3419,-1.3507,-1.3497,-1.3509,-1.3523,-1.3611,-1.3612,-1.3614,-1.3596,-1.3596,-1.3597,0,0,0,0,0,0,-1.313,-1.3188,-1.3198,-1.3243,-1.3277,-1.3328,-1.3347,-1.3361,-1.3397,-1.3398,-1.3432,-1.3443,-1.3483,-1.3507,-1.3495,-1.3559,-1.356,-1.3564,-1.3542,-1.3543,-1.3543,-1.3537,-1.351,0,0,0,0,0,-1.3129,-1.3163,-1.3212,-1.3246,-1.3263,-1.3302,-1.3324,-1.3343,-1.3381,-1.3395,-1.3429,-1.3464,-1.35,-1.3523,-1.3559,-1.36,-1.3611,-1.3615,-1.3615,-1.3615,-1.3618,-1.3641,-1.3643,-1.3619,-1.3619,-1.3619,0,0,-1.313,-1.3165,-1.3185,-1.3242,-1.3272,-1.3305,-1.3314,-1.335,-1.3375,-1.3401,-1.3443,-1.3468,-1.351,-1.3552,-1.3572,-1.3573,-1.3627,-1.3617,-1.3617,-1.362,-1.3642,-1.3644,-1.3646,-1.362,-1.362,-1.362,0,0,-1.3147,-1.3178,-1.3209,-1.3238,-1.3282,-1.3308,-1.3315,-1.3363,-1.3381,-1.3424,-1.3444,-1.3474,-1.3535,-1.3564,-1.3586,-1.3612,-1.3626,-1.3623,-1.3625,-1.3646,-1.3648,-1.365,-1.3659,-1.3662,-1.3626,-1.3626,-1.3626,0,-1.3141,-1.3193,-1.3224,-1.3258,-1.3282,-1.3307,-1.3338,-1.3365,-1.3418,-1.3434,-1.3435,-1.3511,-1.3541,-1.3589,-1.3595,-1.3613,-1.3622,-1.3618,-1.3646,-1.3648,-1.365,-1.3659,-1.3662,-1.3625,-1.3625,-1.3625,-1.3625,0,-1.3184,-1.3219,-1.3239,-1.329,-1.3316,-1.3349,-1.3383,-1.3406,-1.3423,-1.3448,-1.349,-1.3527,-1.357,-1.3583,-1.36,-1.3633,-1.3632,-1.3639,-1.364,-1.3651,-1.366,-1.3663,-1.3624,-1.3624,-1.3625,-1.3625,0,0,-1.319,-1.3255,-1.3262,-1.3285,-1.3335,-1.3362,-1.3395,-1.3437,-1.3456,-1.3491,-1.3519,-1.357,-1.3576,-1.3601,-1.3621,-1.364,-1.3657,-1.3644,-1.3646,-1.3645,-1.3695,-1.369,-1.3693,-1.3666,-1.3667,-1.3668,-1.3692,0,-1.3213,-1.3274,-1.3301,-1.3349,-1.3381,-1.3405,-1.3433,-1.3466,-1.349,-1.3521,-1.3547,-1.3582,-1.3587,-1.3603,-1.3622,-1.3651,-1.3668,-1.365,-1.3692,-1.3694,-1.3681,-1.3698,-1.3693,-1.3714,-1.3695,-1.3696,-1.3696,0,-1.3249,-1.3284,-1.3335,-1.3379,-1.3394,-1.3419,-1.3459,-1.3488,-1.3526,-1.3542,-1.3569,-1.3588,-1.3623,-1.3621,-1.3669,-1.3656,-1.3675,-1.3692,-1.3693,-1.3698,-1.3696,-1.3703,-1.3721,-1.3724,-1.3702,-1.3702,-1.3701,0,-1.3247,-1.3307,-1.3345,-1.3364,-1.3417,-1.3434,-1.3457,-1.3494,-1.3517,-1.3551,-1.3566,-1.3604,-1.3625,-1.3654,-1.3682,-1.3679,-1.3727,-1.3728,-1.3741,-1.374,-1.375,-1.3749,-1.3771,-1.3763,-1.3763,-1.3763,-1.3763,0,-1.327,-1.33,-1.3345,-1.3368,-1.3402,-1.3433,-1.3465,-1.349,-1.3522,-1.355,-1.3573,-1.3598,-1.3634,-1.3664,-1.3687,-1.3722,-1.3732,-1.3745,-1.3751,-1.3743,-1.3741,-1.3756,-1.3755,-1.3763,-1.3763,-1.3763,-1.3763,0,-1.3274,-1.3305,-1.3348,-1.3394,-1.3407,-1.3429,-1.3469,-1.3492,-1.3516,-1.3551,-1.3561,-1.36,-1.3636,-1.3667,-1.3715,-1.373,-1.3767,-1.3774,-1.3754,-1.3757,-1.3768,-1.3766,-1.38,-1.3805,-1.3793,-1.3793,-1.3793,0,-1.3287,-1.331,-1.3359,-1.3379,-1.3402,-1.3434,-1.3457,-1.3488,-1.3511,-1.3555,-1.3572,-1.361,-1.3642,-1.3699,-1.3731,-1.3767,-1.3775,-1.3784,-1.3781,-1.3772,-1.3774,-1.3773,-1.3775,-1.3784,-1.3784,-1.3784,-1.3784,0,-1.3306,-1.332,-1.3352,-1.339,-1.3417,-1.3448,-1.348,-1.3495,-1.3531,-1.3556,-1.3593,-1.3618,-1.3666,-1.3703,-1.3743,-1.3766,-1.3781,-1.3785,-1.379,-1.3782,-1.3769,-1.3776,-1.3754,-1.3784,-1.3784,-1.3784,-1.3784,-1.3784,-1.3314,-1.3336,-1.3373,-1.3408,-1.3435,-1.3464,-1.3487,-1.3514,-1.3546,-1.3588,-1.3604,-1.3641,-1.3677,-1.3732,-1.3755,-1.3784,-1.3787,-1.3794,-1.3796,-1.3797,-1.3795,-1.3765,-1.3792,-1.3792,-1.3792,-1.3792,-1.3792,0,-1.3334,-1.3358,-1.3391,-1.3434,-1.3461,-1.3472,-1.3508,-1.353,-1.3563,-1.3595,-1.3625,-1.3667,-1.3703,-1.3737,-1.3774,-1.3791,-1.3799,-1.38,-1.3799,-1.3804,-1.3791,-1.3783,-1.3793,-1.3793,-1.3793,-1.3793,-1.3793,-1.3793,-1.3347,-1.3384,-1.3402,-1.3451,-1.3476,-1.3513,-1.3532,-1.3558,-1.3584,-1.363,-1.3659,-1.3681,-1.3714,-1.3753,-1.3786,-1.3796,-1.3808,-1.3807,-1.3818,-1.3806,-1.3805,-1.3805,-1.3797,-1.381,-1.381,-1.3828,-1.3828,-1.3828]}]]